Time,TemperatureF,DewpointF,PressureIn,WindDirection,WindDirectionDegrees,WindSpeedMPH,WindSpeedGustMPH,Humidity,HourlyPrecipIn,Conditions,Clouds,dailyrainin,SoftwareType,DateUTC
2013-08-20 00:01:00,73.0,72.5,30.09,ENE,60,0.0,-999.0,98,-99.99,,,-99.99,meteohub,2013-08-20 04:01:00,
2013-08-20 00:06:00,73.0,72.5,30.09,ENE,60,0.0,-999.0,98,-99.99,,,-99.99,meteohub,2013-08-20 04:06:00,
2013-08-20 00:11:00,72.9,72.0,30.09,ENE,60,0.0,-999.0,97,-99.99,,,-99.99,meteohub,2013-08-20 04:11:00,
2013-08-20 00:16:00,72.9,72.0,30.09,ENE,60,0.0,-999.0,97,-99.99,,,-99.99,meteohub,2013-08-20 04:16:00,
2013-08-20 00:21:00,72.7,71.8,30.09,ENE,60,0.0,-999.0,97,-99.99,,,-99.99,meteohub,2013-08-20 04:21:00,
2013-08-20 00:26:00,72.7,72.1,30.09,ENE,60,0.0,-999.0,98,-99.99,,,-99.99,meteohub,2013-08-20 04:26:00,
2013-08-20 00:31:00,72.7,72.1,30.09,ENE,60,0.0,-999.0,98,-99.99,,,-99.99,meteohub,2013-08-20 04:31:00,
2013-08-20 00:36:00,72.5,72.0,30.09,ENE,60,0.0,-999.0,98,-99.99,,,-99.99,meteohub,2013-08-20 04:36:00,
2013-08-20 00:41:00,72.3,71.8,30.09,ENE,60,0.0,-999.0,98,-99.99,,,-99.99,meteohub,2013-08-20 04:41:00,
2013-08-20 00:46:00,72.3,71.8,30.09,ENE,60,0.0,-999.0,98,-99.99,,,-99.99,meteohub,2013-08-20 04:46:00,
2013-08-20 00:51:00,72.3,71.8,30.09,ENE,60,0.0,-999.0,98,-99.99,,,-99.99,meteohub,2013-08-20 04:51:00,
2013-08-20 00:56:00,72.1,71.6,30.09,ENE,60,0.0,-999.0,98,-99.99,,,-99.99,meteohub,2013-08-20 04:56:00,
2013-08-20 01:01:00,72.1,71.6,30.08,ENE,60,0.0,-999.0,98,-99.99,,,-99.99,meteohub,2013-08-20 05:01:00,
2013-08-20 01:06:00,72.1,71.6,30.08,ENE,60,0.0,-999.0,98,-99.99,,,-99.99,meteohub,2013-08-20 05:06:00,
2013-08-20 01:11:00,72.0,71.4,30.08,ENE,60,0.0,-999.0,98,-99.99,,,-99.99,meteohub,2013-08-20 05:11:00,
2013-08-20 01:16:00,72.0,71.4,30.08,ENE,60,0.0,-999.0,98,-99.99,,,-99.99,meteohub,2013-08-20 05:16:00,
2013-08-20 01:21:00,71.8,71.2,30.08,ENE,60,0.0,-999.0,98,-99.99,,,-99.99,meteohub,2013-08-20 05:21:00,
2013-08-20 01:26:00,71.6,71.1,30.08,ENE,60,0.0,-999.0,98,-99.99,,,-99.99,meteohub,2013-08-20 05:26:00,
2013-08-20 01:31:00,71.4,70.9,30.08,ENE,60,0.0,-999.0,98,-99.99,,,-99.99,meteohub,2013-08-20 05:31:00,
2013-08-20 01:36:00,71.4,70.9,30.07,ENE,60,0.0,-999.0,98,-99.99,,,-99.99,meteohub,2013-08-20 05:36:00,
2013-08-20 01:41:00,71.2,70.7,30.07,ENE,60,0.0,-999.0,98,-99.99,,,-99.99,meteohub,2013-08-20 05:41:00,
2013-08-20 01:46:00,71.2,70.7,30.07,ENE,60,0.0,-999.0,98,-99.99,,,-99.99,meteohub,2013-08-20 05:46:00,
2013-08-20 01:51:00,71.2,70.7,30.07,ENE,60,0.0,-999.0,98,-99.99,,,-99.99,meteohub,2013-08-20 05:51:00,
2013-08-20 01:56:00,71.2,70.7,30.07,ENE,60,0.0,-999.0,98,-99.99,,,-99.99,meteohub,2013-08-20 05:56:00,
2013-08-20 02:01:00,71.2,70.7,30.07,ENE,60,0.0,-999.0,98,-99.99,,,-99.99,meteohub,2013-08-20 06:01:00,
2013-08-20 02:06:00,71.2,70.7,30.07,ENE,60,0.0,-999.0,98,-99.99,,,-99.99,meteohub,2013-08-20 06:06:00,
2013-08-20 02:11:00,71.4,70.9,30.07,ENE,60,0.0,-999.0,98,-99.99,,,-99.99,meteohub,2013-08-20 06:11:00,
2013-08-20 02:16:00,71.6,71.1,30.07,ENE,60,0.0,-999.0,98,-99.99,,,-99.99,meteohub,2013-08-20 06:16:00,
2013-08-20 02:21:00,71.6,71.1,30.07,ENE,60,0.0,-999.0,98,-99.99,,,-99.99,meteohub,2013-08-20 06:21:00,
2013-08-20 02:26:00,71.4,70.9,30.07,ENE,60,0.0,-999.0,98,-99.99,,,-99.99,meteohub,2013-08-20 06:26:00,
2013-08-20 02:31:00,71.4,70.9,30.07,ENE,60,0.0,-999.0,98,-99.99,,,-99.99,meteohub,2013-08-20 06:31:00,
2013-08-20 02:36:00,71.4,70.9,30.07,ENE,60,0.0,-999.0,98,-99.99,,,-99.99,meteohub,2013-08-20 06:36:00,
2013-08-20 02:41:00,71.4,70.9,30.07,ENE,60,0.0,-999.0,98,-99.99,,,-99.99,meteohub,2013-08-20 06:41:00,
2013-08-20 02:46:00,71.4,70.9,30.07,ENE,60,0.0,-999.0,98,-99.99,,,-99.99,meteohub,2013-08-20 06:46:00,
2013-08-20 02:51:00,71.4,70.9,30.07,ENE,60,0.0,-999.0,98,-99.99,,,-99.99,meteohub,2013-08-20 06:51:00,
2013-08-20 02:56:00,71.4,70.9,30.07,ENE,60,0.0,-999.0,98,-99.99,,,-99.99,meteohub,2013-08-20 06:56:00,
2013-08-20 03:01:00,71.6,71.1,30.07,ENE,60,0.0,-999.0,98,-99.99,,,-99.99,meteohub,2013-08-20 07:01:00,
2013-08-20 03:06:00,71.6,71.1,30.07,ENE,60,0.0,-999.0,98,-99.99,,,-99.99,meteohub,2013-08-20 07:06:00,
2013-08-20 03:11:00,71.8,71.2,30.07,ENE,60,0.0,-999.0,98,-99.99,,,-99.99,meteohub,2013-08-20 07:11:00,
2013-08-20 03:16:00,71.8,71.2,30.07,ENE,60,0.0,-999.0,98,-99.99,,,-99.99,meteohub,2013-08-20 07:16:00,
2013-08-20 03:21:00,71.8,71.2,30.07,ENE,60,0.0,-999.0,98,-99.99,,,-99.99,meteohub,2013-08-20 07:21:00,
2013-08-20 03:26:00,71.8,71.2,30.07,ENE,60,0.0,-999.0,98,-99.99,,,-99.99,meteohub,2013-08-20 07:26:00,
2013-08-20 03:31:00,71.8,71.4,30.07,ENE,60,0.0,-999.0,99,-99.99,,,-99.99,meteohub,2013-08-20 07:31:00,
2013-08-20 03:36:00,72.0,71.6,30.07,ENE,60,0.0,-999.0,99,-99.99,,,-99.99,meteohub,2013-08-20 07:36:00,
2013-08-20 03:41:00,72.0,71.6,30.07,ENE,60,0.0,-999.0,99,-99.99,,,-99.99,meteohub,2013-08-20 07:41:00,
2013-08-20 03:46:00,72.0,71.6,30.07,ENE,60,0.0,-999.0,99,-99.99,,,-99.99,meteohub,2013-08-20 07:46:00,
2013-08-20 03:51:00,72.0,71.6,30.07,ENE,60,0.0,-999.0,99,-99.99,,,-99.99,meteohub,2013-08-20 07:51:00,
2013-08-20 03:57:00,72.0,71.6,30.07,ENE,60,0.0,-999.0,99,-99.99,,,-99.99,meteohub,2013-08-20 07:57:00,
2013-08-20 04:02:00,72.0,71.6,30.07,ENE,60,0.0,-999.0,99,-99.99,,,-99.99,meteohub,2013-08-20 08:02:00,
2013-08-20 04:07:00,72.0,71.6,30.07,ENE,60,0.0,-999.0,99,-99.99,,,-99.99,meteohub,2013-08-20 08:07:00,
2013-08-20 04:12:00,72.0,71.6,30.06,ENE,60,0.0,-999.0,99,-99.99,,,-99.99,meteohub,2013-08-20 08:12:00,
2013-08-20 04:17:00,72.1,71.8,30.06,ENE,60,0.0,-999.0,99,-99.99,,,-99.99,meteohub,2013-08-20 08:17:00,
2013-08-20 04:22:00,72.1,71.6,30.06,ENE,60,0.0,-999.0,98,-99.99,,,-99.99,meteohub,2013-08-20 08:22:00,
2013-08-20 04:27:00,72.1,71.8,30.06,ENE,60,0.0,-999.0,99,-99.99,,,-99.99,meteohub,2013-08-20 08:27:00,
2013-08-20 04:32:00,72.0,71.4,30.06,ENE,60,0.0,-999.0,98,-99.99,,,-99.99,meteohub,2013-08-20 08:32:00,
2013-08-20 04:37:00,72.0,71.4,30.06,ENE,60,0.0,-999.0,98,-99.99,,,-99.99,meteohub,2013-08-20 08:37:00,
2013-08-20 04:42:00,71.8,71.2,30.06,ENE,60,0.0,-999.0,98,-99.99,,,-99.99,meteohub,2013-08-20 08:42:00,
2013-08-20 04:47:00,71.8,71.2,30.06,ENE,60,0.0,-999.0,98,-99.99,,,-99.99,meteohub,2013-08-20 08:47:00,
2013-08-20 04:52:00,71.6,71.1,30.06,ENE,60,0.0,-999.0,98,-99.99,,,-99.99,meteohub,2013-08-20 08:52:00,
2013-08-20 04:57:00,71.6,71.1,30.06,ENE,60,0.0,-999.0,98,-99.99,,,-99.99,meteohub,2013-08-20 08:57:00,
2013-08-20 05:02:00,71.4,70.9,30.07,ENE,60,0.0,-999.0,98,-99.99,,,-99.99,meteohub,2013-08-20 09:02:00,
2013-08-20 05:07:00,71.4,70.9,30.07,ENE,60,0.0,-999.0,98,-99.99,,,-99.99,meteohub,2013-08-20 09:07:00,
2013-08-20 05:12:00,71.4,70.9,30.07,ENE,60,0.0,-999.0,98,-99.99,,,-99.99,meteohub,2013-08-20 09:12:00,
2013-08-20 05:17:00,71.2,70.7,30.07,ENE,60,0.0,-999.0,98,-99.99,,,-99.99,meteohub,2013-08-20 09:17:00,
2013-08-20 05:22:00,71.2,70.7,30.07,ENE,60,0.0,-999.0,98,-99.99,,,-99.99,meteohub,2013-08-20 09:22:00,
2013-08-20 05:27:00,71.2,70.9,30.07,ENE,60,0.0,-999.0,99,-99.99,,,-99.99,meteohub,2013-08-20 09:27:00,
2013-08-20 05:32:00,71.2,70.9,30.07,ENE,60,0.0,-999.0,99,-99.99,,,-99.99,meteohub,2013-08-20 09:32:00,
2013-08-20 05:37:00,71.2,70.9,30.07,ENE,60,0.0,-999.0,99,-99.99,,,-99.99,meteohub,2013-08-20 09:37:00,
2013-08-20 05:42:00,71.2,70.9,30.08,ENE,60,0.0,-999.0,99,-99.99,,,-99.99,meteohub,2013-08-20 09:42:00,
2013-08-20 05:47:00,71.2,70.9,30.07,ENE,60,0.0,-999.0,99,-99.99,,,-99.99,meteohub,2013-08-20 09:47:00,
2013-08-20 05:52:00,71.4,71.1,30.07,ENE,60,0.0,-999.0,99,-99.99,,,-99.99,meteohub,2013-08-20 09:52:00,
2013-08-20 05:57:00,71.4,71.1,30.08,ENE,60,0.0,-999.0,99,-99.99,,,-99.99,meteohub,2013-08-20 09:57:00,
2013-08-20 06:02:00,71.4,71.1,30.08,ENE,60,0.0,-999.0,99,-99.99,,,-99.99,meteohub,2013-08-20 10:02:00,
2013-08-20 06:07:00,71.4,71.1,30.08,ENE,60,0.0,-999.0,99,-99.99,,,-99.99,meteohub,2013-08-20 10:07:00,
2013-08-20 06:12:00,71.4,71.1,30.08,ENE,60,0.0,-999.0,99,-99.99,,,-99.99,meteohub,2013-08-20 10:12:00,
2013-08-20 06:17:00,71.4,71.1,30.08,ENE,60,0.0,-999.0,99,-99.99,,,-99.99,meteohub,2013-08-20 10:17:00,
2013-08-20 06:22:00,71.2,70.9,30.08,ENE,60,0.0,-999.0,99,-99.99,,,-99.99,meteohub,2013-08-20 10:22:00,
2013-08-20 06:27:00,71.2,70.9,30.08,ENE,60,0.0,-999.0,99,-99.99,,,-99.99,meteohub,2013-08-20 10:27:00,
2013-08-20 06:32:00,71.2,70.9,30.08,ENE,60,0.0,-999.0,99,-99.99,,,-99.99,meteohub,2013-08-20 10:32:00,
2013-08-20 06:37:00,71.2,70.9,30.09,ENE,60,0.0,-999.0,99,-99.99,,,-99.99,meteohub,2013-08-20 10:37:00,
2013-08-20 06:42:00,71.2,70.9,30.09,ENE,60,0.0,-999.0,99,-99.99,,,-99.99,meteohub,2013-08-20 10:42:00,
2013-08-20 06:47:00,71.2,70.9,30.09,ENE,60,0.0,-999.0,99,-99.99,,,-99.99,meteohub,2013-08-20 10:47:00,
2013-08-20 06:52:00,71.2,70.9,30.09,ENE,60,0.0,-999.0,99,-99.99,,,-99.99,meteohub,2013-08-20 10:52:00,
2013-08-20 06:57:00,71.2,70.9,30.09,ENE,60,0.0,-999.0,99,-99.99,,,-99.99,meteohub,2013-08-20 10:57:00,
2013-08-20 07:02:00,71.2,70.9,30.09,ENE,60,0.0,-999.0,99,-99.99,,,-99.99,meteohub,2013-08-20 11:02:00,
2013-08-20 07:07:00,71.2,70.9,30.09,ENE,60,0.0,-999.0,99,-99.99,,,-99.99,meteohub,2013-08-20 11:07:00,
2013-08-20 07:12:00,71.4,71.1,30.10,ENE,60,0.0,-999.0,99,-99.99,,,-99.99,meteohub,2013-08-20 11:12:00,
2013-08-20 07:17:00,71.4,71.1,30.10,ENE,60,0.0,-999.0,99,-99.99,,,-99.99,meteohub,2013-08-20 11:17:00,
2013-08-20 07:22:00,71.4,71.1,30.10,ENE,60,0.0,-999.0,99,-99.99,,,-99.99,meteohub,2013-08-20 11:22:00,
2013-08-20 07:27:00,71.8,71.4,30.10,ENE,60,0.0,-999.0,99,-99.99,,,-99.99,meteohub,2013-08-20 11:27:00,
2013-08-20 07:32:00,72.0,71.6,30.10,ENE,60,0.0,-999.0,99,-99.99,,,-99.99,meteohub,2013-08-20 11:32:00,
2013-08-20 07:37:00,72.1,71.8,30.10,ENE,60,0.0,-999.0,99,-99.99,,,-99.99,meteohub,2013-08-20 11:37:00,
2013-08-20 07:42:00,72.1,71.8,30.10,ENE,60,0.0,-999.0,99,-99.99,,,-99.99,meteohub,2013-08-20 11:42:00,
2013-08-20 07:47:00,72.3,72.0,30.11,ENE,60,0.0,-999.0,99,-99.99,,,-99.99,meteohub,2013-08-20 11:47:00,
2013-08-20 07:52:00,72.3,72.0,30.11,ENE,60,0.0,-999.0,99,-99.99,,,-99.99,meteohub,2013-08-20 11:52:00,
2013-08-20 07:57:00,72.7,72.3,30.11,ENE,60,0.0,-999.0,99,-99.99,,,-99.99,meteohub,2013-08-20 11:57:00,
2013-08-20 08:02:00,72.7,72.3,30.11,ENE,60,0.0,-999.0,99,-99.99,,,-99.99,meteohub,2013-08-20 12:02:00,
2013-08-20 08:07:00,72.9,72.5,30.11,ENE,60,0.0,-999.0,99,-99.99,,,-99.99,meteohub,2013-08-20 12:07:00,
2013-08-20 08:12:00,73.0,72.7,30.11,ENE,60,0.0,-999.0,99,-99.99,,,-99.99,meteohub,2013-08-20 12:12:00,
2013-08-20 08:17:00,73.0,72.7,30.11,ESE,113,0.0,-999.0,99,-99.99,,,-99.99,meteohub,2013-08-20 12:17:00,
2013-08-20 08:22:00,73.2,72.9,30.11,ESE,113,0.0,-999.0,99,-99.99,,,-99.99,meteohub,2013-08-20 12:22:00,
2013-08-20 08:27:00,73.4,73.0,30.11,ESE,113,0.0,-999.0,99,-99.99,,,-99.99,meteohub,2013-08-20 12:27:00,
2013-08-20 08:32:00,73.6,73.2,30.12,East,81,0.0,-999.0,99,-99.99,,,-99.99,meteohub,2013-08-20 12:32:00,
2013-08-20 08:37:00,73.6,73.2,30.12,East,81,0.0,-999.0,99,-99.99,,,-99.99,meteohub,2013-08-20 12:37:00,
2013-08-20 08:42:00,73.9,73.6,30.12,East,81,0.0,-999.0,99,-99.99,,,-99.99,meteohub,2013-08-20 12:42:00,
2013-08-20 08:47:00,74.1,73.8,30.12,East,81,0.0,-999.0,99,-99.99,,,-99.99,meteohub,2013-08-20 12:47:00,
2013-08-20 08:52:00,74.1,73.8,30.12,East,81,0.0,-999.0,99,-99.99,,,-99.99,meteohub,2013-08-20 12:52:00,
2013-08-20 08:57:00,74.5,74.1,30.12,East,81,0.0,-999.0,99,-99.99,,,-99.99,meteohub,2013-08-20 12:57:00,
2013-08-20 09:02:00,74.7,74.3,30.12,East,81,1.0,-999.0,99,-99.99,,,-99.99,meteohub,2013-08-20 13:02:00,
2013-08-20 09:07:00,74.8,74.5,30.12,East,81,0.0,-999.0,99,-99.99,,,-99.99,meteohub,2013-08-20 13:07:00,
2013-08-20 09:12:00,75.0,74.7,30.12,East,81,0.0,-999.0,99,-99.99,,,-99.99,meteohub,2013-08-20 13:12:00,
2013-08-20 09:17:00,75.4,75.0,30.13,NE,44,0.0,-999.0,99,-99.99,,,-99.99,meteohub,2013-08-20 13:17:00,
2013-08-20 09:22:00,75.6,75.2,30.13,NE,44,0.0,-999.0,99,-99.99,,,-99.99,meteohub,2013-08-20 13:22:00,
2013-08-20 09:27:00,75.9,75.6,30.12,NE,44,0.0,-999.0,99,-99.99,,,-99.99,meteohub,2013-08-20 13:27:00,
2013-08-20 09:32:00,76.1,75.7,30.13,NE,44,0.0,-999.0,99,-99.99,,,-99.99,meteohub,2013-08-20 13:32:00,
2013-08-20 09:37:00,76.3,75.9,30.12,NE,44,0.0,-999.0,99,-99.99,,,-99.99,meteohub,2013-08-20 13:37:00,
2013-08-20 09:42:00,76.5,76.1,30.13,NE,44,0.0,-999.0,99,-99.99,,,-99.99,meteohub,2013-08-20 13:42:00,
2013-08-20 09:47:00,76.6,76.3,30.13,NE,44,0.0,-999.0,99,-99.99,,,-99.99,meteohub,2013-08-20 13:47:00,
2013-08-20 09:52:00,76.8,76.5,30.13,NE,44,0.0,-999.0,99,-99.99,,,-99.99,meteohub,2013-08-20 13:52:00,
2013-08-20 09:57:00,76.8,76.5,30.13,ESE,121,0.0,-999.0,99,-99.99,,,-99.99,meteohub,2013-08-20 13:57:00,
2013-08-20 10:02:00,77.0,76.6,30.14,ESE,103,0.0,-999.0,99,-99.99,,,-99.99,meteohub,2013-08-20 14:02:00,
2013-08-20 10:07:00,77.4,77.0,30.14,ENE,71,0.0,-999.0,99,-99.99,,,-99.99,meteohub,2013-08-20 14:07:00,
2013-08-20 10:12:00,78.1,77.7,30.14,ENE,71,4.0,-999.0,99,-99.99,,,-99.99,meteohub,2013-08-20 14:12:00,
2013-08-20 10:17:00,78.4,77.9,30.13,East,100,0.0,-999.0,98,-99.99,,,-99.99,meteohub,2013-08-20 14:17:00,
2013-08-20 10:22:00,79.5,78.6,30.14,ENE,72,3.0,-999.0,97,-99.99,,,-99.99,meteohub,2013-08-20 14:22:00,
2013-08-20 10:27:00,79.5,77.4,30.13,East,91,1.0,-999.0,93,-99.99,,,-99.99,meteohub,2013-08-20 14:27:00,
2013-08-20 10:32:00,80.2,77.7,30.14,ESE,109,0.0,-999.0,92,-99.99,,,-99.99,meteohub,2013-08-20 14:32:00,
2013-08-20 10:37:00,81.1,78.3,30.14,East,85,2.0,-999.0,91,-99.99,,,-99.99,meteohub,2013-08-20 14:37:00,
2013-08-20 10:42:00,81.3,77.7,30.14,WSW,252,0.0,-999.0,89,-99.99,,,-99.99,meteohub,2013-08-20 14:42:00,
2013-08-20 10:47:00,81.1,77.5,30.14,ENE,69,3.0,-999.0,89,-99.99,,,-99.99,meteohub,2013-08-20 14:47:00,
2013-08-20 10:52:00,81.3,77.7,30.14,East,101,2.0,-999.0,89,-99.99,,,-99.99,meteohub,2013-08-20 14:52:00,
2013-08-20 10:57:00,81.3,77.4,30.14,ENE,76,0.0,-999.0,88,-99.99,,,-99.99,meteohub,2013-08-20 14:57:00,
2013-08-20 11:02:00,81.5,77.2,30.14,ESE,112,5.0,-999.0,87,-99.99,,,-99.99,meteohub,2013-08-20 15:02:00,
2013-08-20 11:07:00,81.7,77.4,30.14,East,84,1.0,-999.0,87,-99.99,,,-99.99,meteohub,2013-08-20 15:07:00,
2013-08-20 11:12:00,81.3,77.4,30.14,ENE,78,0.0,-999.0,88,-99.99,,,-99.99,meteohub,2013-08-20 15:12:00,
2013-08-20 11:17:00,81.3,77.0,30.14,ENE,68,0.0,-999.0,87,-99.99,,,-99.99,meteohub,2013-08-20 15:17:00,
2013-08-20 11:22:00,81.7,78.1,30.14,ESE,116,5.0,-999.0,89,-99.99,,,-99.99,meteohub,2013-08-20 15:22:00,
2013-08-20 11:27:00,82.0,77.7,30.14,East,92,4.0,-999.0,87,-99.99,,,-99.99,meteohub,2013-08-20 15:27:00,
2013-08-20 11:32:00,82.0,77.7,30.14,ENE,74,4.0,-999.0,87,-99.99,,,-99.99,meteohub,2013-08-20 15:32:00,
2013-08-20 11:37:00,81.7,77.4,30.14,ENE,78,5.0,-999.0,87,-99.99,,,-99.99,meteohub,2013-08-20 15:37:00,
2013-08-20 11:42:00,82.0,78.1,30.14,ESE,123,9.0,-999.0,88,-99.99,,,-99.99,meteohub,2013-08-20 15:42:00,
2013-08-20 11:47:00,82.2,77.9,30.14,East,101,5.0,-999.0,87,-99.99,,,-99.99,meteohub,2013-08-20 15:47:00,
2013-08-20 11:52:00,82.0,77.4,30.14,SE,142,2.0,-999.0,86,-99.99,,,-99.99,meteohub,2013-08-20 15:52:00,
2013-08-20 11:57:00,81.9,77.2,30.14,East,83,1.0,-999.0,86,-99.99,,,-99.99,meteohub,2013-08-20 15:57:00,
2013-08-20 12:02:00,81.9,77.5,30.14,ENE,69,4.0,-999.0,87,-99.99,,,-99.99,meteohub,2013-08-20 16:02:00,
2013-08-20 12:07:00,81.7,77.0,30.14,East,100,0.0,-999.0,86,-99.99,,,-99.99,meteohub,2013-08-20 16:07:00,
2013-08-20 12:12:00,81.5,77.5,30.14,East,94,6.0,-999.0,88,-99.99,,,-99.99,meteohub,2013-08-20 16:12:00,
2013-08-20 12:17:00,81.0,77.4,30.14,ENE,78,3.0,-999.0,89,-99.99,,,-99.99,meteohub,2013-08-20 16:17:00,
2013-08-20 12:22:00,80.8,77.9,30.14,ENE,78,0.0,-999.0,91,-99.99,,,-99.99,meteohub,2013-08-20 16:22:00,
2013-08-20 12:27:00,80.8,78.3,30.14,East,86,0.0,-999.0,92,-99.99,,,-99.99,meteohub,2013-08-20 16:27:00,
2013-08-20 12:32:00,80.4,77.9,30.15,ENE,75,2.0,-999.0,92,-99.99,,,-99.99,meteohub,2013-08-20 16:32:00,
2013-08-20 12:37:00,79.9,77.4,30.14,ESE,113,2.0,-999.0,92,-99.99,,,-99.99,meteohub,2013-08-20 16:37:00,
2013-08-20 12:42:00,79.5,77.0,30.14,ENE,72,0.0,-999.0,92,-99.99,,,-99.99,meteohub,2013-08-20 16:42:00,
2013-08-20 12:47:00,79.2,77.0,30.14,ESE,107,4.0,-999.0,93,-99.99,,,-99.99,meteohub,2013-08-20 16:47:00,
2013-08-20 12:52:00,79.0,76.8,30.14,East,95,1.0,-999.0,93,-99.99,,,-99.99,meteohub,2013-08-20 16:52:00,
2013-08-20 12:57:00,79.0,77.2,30.14,East,95,0.0,-999.0,94,-99.99,,,-99.99,meteohub,2013-08-20 16:57:00,
2013-08-20 13:02:00,79.0,77.2,30.13,East,95,0.0,-999.0,94,-99.99,,,-99.99,meteohub,2013-08-20 17:02:00,
2013-08-20 13:07:00,79.2,77.5,30.13,ENE,78,0.0,-999.0,95,-99.99,,,-99.99,meteohub,2013-08-20 17:07:00,
2013-08-20 13:12:00,79.5,77.9,30.13,East,94,0.0,-999.0,95,-99.99,,,-99.99,meteohub,2013-08-20 17:12:00,
2013-08-20 13:17:00,79.9,78.1,30.14,ESE,109,2.0,-999.0,94,-99.99,,,-99.99,meteohub,2013-08-20 17:17:00,
2013-08-20 13:22:00,79.9,77.4,30.14,East,93,8.0,-999.0,92,-99.99,,,-99.99,meteohub,2013-08-20 17:22:00,
2013-08-20 13:27:00,79.7,77.2,30.13,East,89,2.0,-999.0,92,-99.99,,,-99.99,meteohub,2013-08-20 17:27:00,
2013-08-20 13:32:00,79.7,77.5,30.13,ENE,76,4.0,-999.0,93,-99.99,,,-99.99,meteohub,2013-08-20 17:32:00,
2013-08-20 13:37:00,79.9,77.7,30.14,East,89,3.0,-999.0,93,-99.99,,,-99.99,meteohub,2013-08-20 17:37:00,
2013-08-20 13:42:00,80.2,78.1,30.14,ESE,123,5.0,-999.0,93,-99.99,,,-99.99,meteohub,2013-08-20 17:42:00,
2013-08-20 13:47:00,80.4,78.3,30.13,ESE,103,4.0,-999.0,93,-99.99,,,-99.99,meteohub,2013-08-20 17:47:00,
2013-08-20 13:52:00,80.4,77.5,30.13,East,79,2.0,-999.0,91,-99.99,,,-99.99,meteohub,2013-08-20 17:52:00,
2013-08-20 13:57:00,80.2,77.0,30.13,ENE,78,2.0,-999.0,90,-99.99,,,-99.99,meteohub,2013-08-20 17:57:00,
2013-08-20 14:02:00,80.2,77.0,30.14,ENE,71,4.0,-999.0,90,-99.99,,,-99.99,meteohub,2013-08-20 18:02:00,
2013-08-20 14:07:00,80.2,77.0,30.14,East,84,3.0,-999.0,90,-99.99,,,-99.99,meteohub,2013-08-20 18:07:00,
2013-08-20 14:12:00,80.2,77.0,30.12,ENE,69,6.0,-999.0,90,-99.99,,,-99.99,meteohub,2013-08-20 18:12:00,
2013-08-20 14:17:00,81.0,78.1,30.12,SE,127,5.0,-999.0,91,-99.99,,,-99.99,meteohub,2013-08-20 18:17:00,
2013-08-20 14:22:00,81.1,77.5,30.13,ENE,71,1.0,-999.0,89,-99.99,,,-99.99,meteohub,2013-08-20 18:22:00,
2013-08-20 14:27:00,81.3,77.7,30.13,ESE,115,6.0,-999.0,89,-99.99,,,-99.99,meteohub,2013-08-20 18:27:00,
2013-08-20 14:32:00,81.1,77.5,30.13,East,94,4.0,-999.0,89,-99.99,,,-99.99,meteohub,2013-08-20 18:32:00,
2013-08-20 14:37:00,81.0,77.7,30.12,ESE,109,6.0,-999.0,90,-99.99,,,-99.99,meteohub,2013-08-20 18:37:00,
2013-08-20 14:42:00,81.0,77.7,30.12,ENE,62,3.0,-999.0,90,-99.99,,,-99.99,meteohub,2013-08-20 18:42:00,
2013-08-20 14:47:00,81.3,77.7,30.12,ENE,66,3.0,-999.0,89,-99.99,,,-99.99,meteohub,2013-08-20 18:47:00,
2013-08-20 14:52:00,81.9,77.9,30.12,East,96,2.0,-999.0,88,-99.99,,,-99.99,meteohub,2013-08-20 18:52:00,
2013-08-20 14:57:00,81.9,77.9,30.11,East,83,5.0,-999.0,88,-99.99,,,-99.99,meteohub,2013-08-20 18:57:00,
2013-08-20 15:02:00,82.0,78.1,30.11,East,82,2.0,-999.0,88,-99.99,,,-99.99,meteohub,2013-08-20 19:02:00,
2013-08-20 15:07:00,82.0,77.7,30.12,SE,126,4.0,-999.0,87,-99.99,,,-99.99,meteohub,2013-08-20 19:07:00,
2013-08-20 15:12:00,81.9,77.5,30.12,East,81,0.0,-999.0,87,-99.99,,,-99.99,meteohub,2013-08-20 19:12:00,
2013-08-20 15:17:00,81.9,77.5,30.11,ESE,115,2.0,-999.0,87,-99.99,,,-99.99,meteohub,2013-08-20 19:17:00,
2013-08-20 15:22:00,81.9,77.5,30.11,East,90,4.0,-999.0,87,-99.99,,,-99.99,meteohub,2013-08-20 19:22:00,
2013-08-20 15:27:00,82.2,77.5,30.11,East,89,6.0,-999.0,86,-99.99,,,-99.99,meteohub,2013-08-20 19:27:00,
2013-08-20 15:32:00,82.2,77.5,30.11,NE,55,5.0,-999.0,86,-99.99,,,-99.99,meteohub,2013-08-20 19:32:00,
2013-08-20 15:37:00,81.9,77.5,30.11,NE,54,0.0,-999.0,87,-99.99,,,-99.99,meteohub,2013-08-20 19:37:00,
2013-08-20 15:42:00,81.7,77.4,30.11,ENE,78,2.0,-999.0,87,-99.99,,,-99.99,meteohub,2013-08-20 19:42:00,
2013-08-20 15:47:00,81.3,77.0,30.10,SE,128,7.0,-999.0,87,-99.99,,,-99.99,meteohub,2013-08-20 19:47:00,
2013-08-20 15:52:00,81.3,77.4,30.10,East,88,4.0,-999.0,88,-99.99,,,-99.99,meteohub,2013-08-20 19:52:00,
2013-08-20 15:57:00,81.1,77.5,30.10,East,80,4.0,-999.0,89,-99.99,,,-99.99,meteohub,2013-08-20 19:57:00,
2013-08-20 16:02:00,81.0,77.4,30.11,ENE,64,8.0,-999.0,89,-99.99,,,-99.99,meteohub,2013-08-20 20:02:00,
2013-08-20 16:07:00,80.4,77.2,30.10,East,98,1.0,-999.0,90,-99.99,,,-99.99,meteohub,2013-08-20 20:07:00,
2013-08-20 16:12:00,80.1,76.8,30.11,East,86,5.0,-999.0,90,-99.99,,,-99.99,meteohub,2013-08-20 20:12:00,
2013-08-20 16:17:00,79.9,76.6,30.11,East,95,8.0,-999.0,90,-99.99,,,-99.99,meteohub,2013-08-20 20:17:00,
2013-08-20 16:22:00,79.5,76.3,30.11,ESE,111,6.0,-999.0,90,-99.99,,,-99.99,meteohub,2013-08-20 20:22:00,
2013-08-20 16:27:00,79.5,76.6,30.11,East,80,3.0,-999.0,91,-99.99,,,-99.99,meteohub,2013-08-20 20:27:00,
2013-08-20 16:32:00,79.5,76.6,30.11,East,80,3.0,-999.0,91,-99.99,,,-99.99,meteohub,2013-08-20 20:32:00,
2013-08-20 16:37:00,79.5,76.6,30.11,East,80,4.0,-999.0,91,-99.99,,,-99.99,meteohub,2013-08-20 20:37:00,
2013-08-20 16:42:00,79.3,76.5,30.11,SE,130,4.0,-999.0,91,-99.99,,,-99.99,meteohub,2013-08-20 20:42:00,
2013-08-20 16:47:00,79.3,76.5,30.12,East,93,4.0,-999.0,91,-99.99,,,-99.99,meteohub,2013-08-20 20:47:00,
2013-08-20 16:52:00,79.3,76.5,30.12,ENE,62,0.0,-999.0,91,-99.99,,,-99.99,meteohub,2013-08-20 20:52:00,
2013-08-20 16:57:00,79.2,76.6,30.12,East,92,1.0,-999.0,92,-99.99,,,-99.99,meteohub,2013-08-20 20:57:00,
2013-08-20 17:02:00,79.0,76.5,30.12,East,92,0.0,-999.0,92,-99.99,,,-99.99,meteohub,2013-08-20 21:02:00,
2013-08-20 17:07:00,78.8,76.6,30.12,ENE,63,2.0,-999.0,93,-99.99,,,-99.99,meteohub,2013-08-20 21:07:00,
2013-08-20 17:12:00,78.4,76.3,30.11,East,84,3.0,-999.0,93,-99.99,,,-99.99,meteohub,2013-08-20 21:12:00,
2013-08-20 17:17:00,78.3,76.5,30.11,ENE,68,1.0,-999.0,94,-99.99,,,-99.99,meteohub,2013-08-20 21:17:00,
2013-08-20 17:22:00,78.1,76.3,30.12,ENE,68,0.0,-999.0,94,-99.99,,,-99.99,meteohub,2013-08-20 21:22:00,
2013-08-20 17:27:00,77.9,76.3,30.12,ENE,68,0.0,-999.0,95,-99.99,,,-99.99,meteohub,2013-08-20 21:27:00,
2013-08-20 17:32:00,77.7,76.1,30.12,ENE,68,0.0,-999.0,95,-99.99,,,-99.99,meteohub,2013-08-20 21:32:00,
2013-08-20 17:37:00,77.5,75.9,30.12,ENE,68,0.0,-999.0,95,-99.99,,,-99.99,meteohub,2013-08-20 21:37:00,
2013-08-20 17:42:00,77.5,76.3,30.12,ENE,68,0.0,-999.0,96,-99.99,,,-99.99,meteohub,2013-08-20 21:42:00,
2013-08-20 17:47:00,77.5,76.3,30.12,ENE,68,0.0,-999.0,96,-99.99,,,-99.99,meteohub,2013-08-20 21:47:00,
2013-08-20 17:52:00,77.5,76.3,30.12,ENE,68,0.0,-999.0,96,-99.99,,,-99.99,meteohub,2013-08-20 21:52:00,
2013-08-20 17:57:00,77.5,76.3,30.11,ENE,68,0.0,-999.0,96,-99.99,,,-99.99,meteohub,2013-08-20 21:57:00,
2013-08-20 18:02:00,77.5,76.3,30.11,ENE,65,0.0,-999.0,96,-99.99,,,-99.99,meteohub,2013-08-20 22:02:00,
2013-08-20 18:07:00,77.5,76.6,30.11,ENE,65,0.0,-999.0,97,-99.99,,,-99.99,meteohub,2013-08-20 22:07:00,
2013-08-20 18:12:00,77.4,76.5,30.12,ENE,65,0.0,-999.0,97,-99.99,,,-99.99,meteohub,2013-08-20 22:12:00,
2013-08-20 18:17:00,77.4,76.5,30.11,ENE,65,0.0,-999.0,97,-99.99,,,-99.99,meteohub,2013-08-20 22:17:00,
2013-08-20 18:22:00,77.4,76.1,30.11,West,261,1.0,-999.0,96,-99.99,,,-99.99,meteohub,2013-08-20 22:22:00,
2013-08-20 18:27:00,76.8,75.6,30.11,West,261,3.0,-999.0,96,-99.99,,,-99.99,meteohub,2013-08-20 22:27:00,
2013-08-20 18:32:00,76.3,75.0,30.11,WNW,283,0.0,-999.0,96,-99.99,,,-99.99,meteohub,2013-08-20 22:32:00,
2013-08-20 18:37:00,76.3,75.4,30.11,WNW,283,0.0,-999.0,97,-99.99,,,-99.99,meteohub,2013-08-20 22:37:00,
2013-08-20 18:42:00,76.3,75.4,30.11,WNW,283,0.0,-999.0,97,-99.99,,,-99.99,meteohub,2013-08-20 22:42:00,
2013-08-20 18:47:00,76.3,75.4,30.11,WNW,283,0.0,-999.0,97,-99.99,,,-99.99,meteohub,2013-08-20 22:47:00,
2013-08-20 18:52:00,76.3,75.4,30.11,WNW,283,0.0,-999.0,97,-99.99,,,-99.99,meteohub,2013-08-20 22:52:00,
2013-08-20 18:57:00,76.5,75.6,30.11,WNW,283,0.0,-999.0,97,-99.99,,,-99.99,meteohub,2013-08-20 22:57:00,
2013-08-20 19:02:00,76.5,75.6,30.11,WNW,283,0.0,-999.0,97,-99.99,,,-99.99,meteohub,2013-08-20 23:02:00,
2013-08-20 19:07:00,76.6,75.7,30.11,WNW,283,0.0,-999.0,97,-99.99,,,-99.99,meteohub,2013-08-20 23:07:00,
2013-08-20 19:12:00,76.6,75.7,30.11,WNW,283,0.0,-999.0,97,-99.99,,,-99.99,meteohub,2013-08-20 23:12:00,
2013-08-20 19:17:00,76.6,75.7,30.12,WNW,283,0.0,-999.0,97,-99.99,,,-99.99,meteohub,2013-08-20 23:17:00,
2013-08-20 19:22:00,76.8,75.9,30.12,WNW,283,0.0,-999.0,97,-99.99,,,-99.99,meteohub,2013-08-20 23:22:00,
2013-08-20 19:27:00,76.8,75.9,30.12,WNW,283,0.0,-999.0,97,-99.99,,,-99.99,meteohub,2013-08-20 23:27:00,
2013-08-20 19:32:00,76.8,75.9,30.12,WNW,283,0.0,-999.0,97,-99.99,,,-99.99,meteohub,2013-08-20 23:32:00,
2013-08-20 19:37:00,76.8,75.9,30.12,WNW,283,0.0,-999.0,97,-99.99,,,-99.99,meteohub,2013-08-20 23:37:00,
2013-08-20 19:42:00,76.8,75.9,30.12,WNW,283,0.0,-999.0,97,-99.99,,,-99.99,meteohub,2013-08-20 23:42:00,
2013-08-20 19:47:00,76.8,75.9,30.12,WNW,283,0.0,-999.0,97,-99.99,,,-99.99,meteohub,2013-08-20 23:47:00,
2013-08-20 19:52:00,76.6,75.7,30.12,WNW,283,0.0,-999.0,97,-99.99,,,-99.99,meteohub,2013-08-20 23:52:00,
2013-08-20 19:57:00,76.6,75.7,30.12,WNW,283,0.0,-999.0,97,-99.99,,,-99.99,meteohub,2013-08-20 23:57:00,
2013-08-20 20:02:00,76.6,75.7,30.12,WNW,283,0.0,-999.0,97,-99.99,,,-99.99,meteohub,2013-08-21 00:02:00,
2013-08-20 20:07:00,76.6,75.7,30.12,WNW,283,0.0,-999.0,97,-99.99,,,-99.99,meteohub,2013-08-21 00:07:00,
2013-08-20 20:12:00,76.6,76.1,30.12,WNW,283,0.0,-999.0,98,-99.99,,,-99.99,meteohub,2013-08-21 00:12:00,
2013-08-20 20:17:00,76.5,75.9,30.12,WNW,283,0.0,-999.0,98,-99.99,,,-99.99,meteohub,2013-08-21 00:17:00,
2013-08-20 20:22:00,76.5,75.9,30.12,WNW,283,0.0,-999.0,98,-99.99,,,-99.99,meteohub,2013-08-21 00:22:00,
2013-08-20 20:27:00,76.5,75.9,30.12,WNW,283,0.0,-999.0,98,-99.99,,,-99.99,meteohub,2013-08-21 00:27:00,
2013-08-20 20:32:00,76.3,75.7,30.12,WNW,283,0.0,-999.0,98,-99.99,,,-99.99,meteohub,2013-08-21 00:32:00,
2013-08-20 20:37:00,76.3,75.4,30.13,WNW,283,0.0,-999.0,97,-99.99,,,-99.99,meteohub,2013-08-21 00:37:00,
2013-08-20 20:42:00,76.1,75.2,30.13,WNW,283,0.0,-999.0,97,-99.99,,,-99.99,meteohub,2013-08-21 00:42:00,
2013-08-20 20:47:00,76.1,75.2,30.13,WNW,283,0.0,-999.0,97,-99.99,,,-99.99,meteohub,2013-08-21 00:47:00,
2013-08-20 20:52:00,75.9,75.4,30.13,WNW,283,0.0,-999.0,98,-99.99,,,-99.99,meteohub,2013-08-21 00:52:00,
2013-08-20 20:57:00,75.7,75.2,30.13,WNW,283,0.0,-999.0,98,-99.99,,,-99.99,meteohub,2013-08-21 00:57:00,
2013-08-20 21:02:00,75.6,74.7,30.13,WNW,283,0.0,-999.0,97,-99.99,,,-99.99,meteohub,2013-08-21 01:02:00,
2013-08-20 21:07:00,75.4,74.5,30.13,WNW,283,0.0,-999.0,97,-99.99,,,-99.99,meteohub,2013-08-21 01:07:00,
2013-08-20 21:12:00,75.4,74.5,30.13,WNW,283,0.0,-999.0,97,-99.99,,,-99.99,meteohub,2013-08-21 01:12:00,
2013-08-20 21:17:00,75.4,74.8,30.13,WNW,283,0.0,-999.0,98,-99.99,,,-99.99,meteohub,2013-08-21 01:17:00,
2013-08-20 21:19:00,75.4,74.8,30.13,WNW,283,0.0,-999.0,98,-99.99,,,-99.99,meteohub,2013-08-21 01:19:00,
2013-08-20 21:24:00,75.4,74.8,30.13,WNW,283,0.0,-999.0,98,-99.99,,,-99.99,meteohub,2013-08-21 01:24:00,
2013-08-20 21:29:00,75.6,75.0,30.13,WNW,283,0.0,-999.0,98,-99.99,,,-99.99,meteohub,2013-08-21 01:29:00,
2013-08-20 21:34:00,75.4,74.8,30.13,WNW,283,0.0,-999.0,98,-99.99,,,-99.99,meteohub,2013-08-21 01:34:00,
2013-08-20 21:39:00,75.2,74.7,30.13,WNW,283,0.0,-999.0,98,-99.99,,,-99.99,meteohub,2013-08-21 01:39:00,
2013-08-20 21:44:00,75.0,74.5,30.13,WNW,283,0.0,-999.0,98,-99.99,,,-99.99,meteohub,2013-08-21 01:44:00,
2013-08-20 21:49:00,75.0,74.5,30.13,WNW,283,0.0,-999.0,98,-99.99,,,-99.99,meteohub,2013-08-21 01:49:00,
2013-08-20 21:54:00,75.0,74.5,30.13,WNW,283,0.0,-999.0,98,-99.99,,,-99.99,meteohub,2013-08-21 01:54:00,
2013-08-20 21:59:00,75.0,74.5,30.13,WNW,283,0.0,-999.0,98,-99.99,,,-99.99,meteohub,2013-08-21 01:59:00,
2013-08-20 22:04:00,75.0,74.5,30.13,WNW,283,0.0,-999.0,98,-99.99,,,-99.99,meteohub,2013-08-21 02:04:00,
2013-08-20 22:09:00,75.0,74.5,30.13,WNW,283,0.0,-999.0,98,-99.99,,,-99.99,meteohub,2013-08-21 02:09:00,